GW2805 Weather Reports


time (UTC)temp
C
wind
direction
speed
KPH
gust
KPH
rain 1hr
cm
rain 24hr
cm
rain mn
cm
humidity
%
barometer
mb
20260901200821 22 0 8.0 9.7 0.00 0.00 0.00 47 1016.6
20260901200321 22 0 6.4 14.5 0.00 0.00 0.00 47 1016.6
20260901195821 22 0 8.0 14.5 0.00 0.00 0.00 48 1016.7
20260901195602 22 0 9.7 14.5 0.00 0.00 0.00 47 1016.7
20260901194821 22 0 8.0 11.3 0.00 0.00 0.00 48 1016.6
20260901194320 22 0 4.8 9.7 0.00 0.00 0.00 49 1016.7
20260901193819 21 0 3.2 19.3 0.00 0.00 0.00 50 1016.7
20260901193320 21 0 4.8 19.3 0.00 0.00 0.00 51 1016.7
20260901193057 21 0 11.3 17.7 0.00 0.00 0.00 51 1016.7
20260901192319 21 0 8.0 16.1 0.00 0.00 0.00 51 1016.7
20260901191820 21 0 4.8 11.3 0.00 0.00 0.00 51 1016.8
20260901191320 21 0 3.2 11.3 0.00 0.00 0.00 51 1016.9
20260901190820 21 0 3.2 14.5 0.00 0.00 0.00 51 1016.9
20260901190319 21 0 3.2 14.5 0.00 0.00 0.00 50 1016.8
20260901185819 21 0 4.8 14.5 0.00 0.00 0.00 51 1016.8
20260901185319 21 0 8.0 14.5 0.00 0.00 0.00 50 1016.8
20260901184819 21 0 3.2 6.4 0.00 0.00 0.00 49 1016.9
20260901184319 21 0 3.2 6.4 0.00 0.00 0.00 49 1016.8
20260901184057 21 0 3.2 9.7 0.00 0.00 0.00 49 1016.8
20260901183318 21 0 4.8 14.5 0.00 0.00 0.00 49 1016.7
20260901182818 21 0 8.0 14.5 0.00 0.00 0.00 51 1016.7
20260901182318 20 0 4.8 8.0 0.00 0.00 0.00 53 1016.8
20260901182057 20 0 3.2 8.0 0.00 0.00 0.00 53 1016.8
20260901181317 19 0 3.2 14.5 0.00 0.00 0.00 54 1016.8
20260901180818 19 0 8.0 14.5 0.00 0.00 0.00 54 1016.9
20260901180317 19 0 6.4 11.3 0.00 0.00 0.00 54 1016.9
20260901180057 19 0 3.2 11.3 0.00 0.00 0.00 55 1016.9
20260901175317 19 0 4.8 16.1 0.00 0.00 0.00 56 1016.8
20260901174818 19 0 8.0 16.1 0.00 0.00 0.00 57 1016.9
20260901174317 18 0 4.8 11.3 0.00 0.00 0.00 57 1016.8
20260901173816 18 0 1.6 11.3 0.00 0.00 0.00 58 1016.8
20260901173554 18 0 3.2 11.3 0.00 0.00 0.00 58 1016.7
20260901172815 18 0 6.4 11.3 0.00 0.00 0.00 58 1016.7
20260901172315 18 0 4.8 8.0 0.00 0.00 0.00 58 1016.6
20260901171815 18 0 4.8 16.1 0.00 0.00 0.00 58 1016.6
20260901171315 18 0 4.8 16.1 0.00 0.00 0.00 58 1016.5
20260901170814 18 0 3.2 9.7 0.00 0.00 0.00 59 1016.5
20260901170314 18 0 3.2 6.4 0.00 0.00 0.00 60 1016.5
20260901165816 18 0 3.2 11.3 0.00 0.00 0.00 60 1016.6
20260901165554 18 0 3.2 11.3 0.00 0.00 0.00 60 1016.5
20260901164814 18 0 3.2 8.0 0.00 0.00 0.00 60 1016.5
20260901164314 18 0 3.2 4.8 0.00 0.00 0.00 60 1016.2
20260901163814 18 0 0.0 8.0 0.00 0.00 0.00 62 1016.3
20260901163314 18 0 1.6 11.3 0.00 0.00 0.00 62 1016.3
20260901162814 17 0 6.4 11.3 0.00 0.00 0.00 61 1016.2
20260901162313 18 0 3.2 8.0 0.00 0.00 0.00 61 1016.2
20260901162054 18 0 4.8 8.0 0.00 0.00 0.00 61 1016.2
20260901161314 18 0 1.6 6.4 0.00 0.00 0.00 61 1016.1
20260901160839 18 0 1.6 6.4 0.00 0.00 0.00 61 1016.3
20260901160830 18 0 1.6 4.8 0.00 0.00 0.00 61 1016.2
20260901155815 17 0 3.2 6.4 0.00 0.00 0.00 63 1016.2
20260901155314 17 0 1.6 4.8 0.00 0.00 0.00 62 1016.2
20260901154814 17 0 1.6 3.2 0.00 0.00 0.00 64 1016.1
20260901154552 17 0 0.0 4.8 0.00 0.00 0.00 65 1016.1
20260901153814 17 0 1.6 4.8 0.00 0.00 0.00 66 1016.1
20260901153314 17 0 3.2 6.4 0.00 0.00 0.00 66 1016.0
20260901152814 16 0 1.6 6.4 0.00 0.00 0.00 66 1016.0
20260901152313 16 0 1.6 4.8 0.00 0.00 0.00 68 1015.9
20260901151814 16 0 1.6 4.8 0.00 0.00 0.00 68 1015.9
20260901151313 16 0 3.2 4.8 0.00 0.00 0.00 68 1015.8
20260901150813 16 0 3.2 4.8 0.00 0.00 0.00 68 1015.8
20260901150314 16 0 3.2 4.8 0.00 0.00 0.00 68 1015.8
20260901145813 16 0 1.6 6.4 0.00 0.00 0.00 68 1015.8
20260901145313 16 0 1.6 8.0 0.00 0.00 0.00 68 1015.7
20260901144812 16 0 4.8 8.0 0.00 0.00 0.00 68 1015.6
20260901144312 16 0 1.6 4.8 0.00 0.00 0.00 69 1015.6
20260901143813 16 0 1.6 8.0 0.00 0.00 0.00 69 1015.5
20260901143551 16 0 3.2 8.0 0.00 0.00 0.00 69 1015.5
20260901142809 16 0 1.6 6.4 0.00 0.00 0.00 68 1015.4
20260901142545 16 0 3.2 6.4 0.00 0.00 0.00 68 1015.3
20260901141802 16 0 1.6 4.8 0.00 0.00 0.00 68 1015.2
20260901141548 16 0 3.2 9.7 0.00 0.00 0.00 68 1015.2
20260901140803 16 0 3.2 9.7 0.00 0.00 0.00 68 1015.0
20260901140542 16 0 3.2 6.4 0.00 0.00 0.00 68 1015.1
20260901140043 16 0 3.2 6.4 0.00 0.00 0.00 69 1014.9
20260901135305 16 0 3.2 6.4 0.00 0.00 0.00 69 1015.0
20260901135043 15 0 1.6 3.2 0.00 0.00 0.00 69 1014.9
20260901134543 15 0 1.6 3.2 0.00 0.00 0.00 69 1014.8
20260901133803 16 0 1.6 3.2 0.00 0.00 0.00 69 1014.8
20260901133303 16 0 1.6 6.4 0.00 0.00 0.00 69 1014.8
20260901132803 16 0 3.2 6.4 0.00 0.00 0.00 69 1014.8
20260901132306 15 0 1.6 4.8 0.00 0.00 0.00 69 1014.7
20260901131803 15 0 1.6 8.0 0.00 0.00 0.00 69 1014.8
20260901131326 15 0 3.2 8.0 0.00 0.00 0.00 69 1014.6
20260901131316 15 0 3.2 8.0 0.00 0.00 0.00 69 1014.7
20260901130259 15 0 3.2 6.4 0.00 0.00 0.00 69 1014.7
20260901125759 15 0 3.2 6.4 0.00 0.00 0.00 69 1014.6
20260901125259 15 0 3.2 6.4 0.00 0.00 0.00 69 1014.5
20260901125036 15 0 4.8 6.4 0.00 0.00 0.00 70 1014.5
20260901124257 15 0 3.2 6.4 0.00 0.00 0.00 69 1014.4
20260901123756 15 0 4.8 6.4 0.00 0.00 0.00 69 1014.4
20260901123254 15 0 3.2 9.7 0.00 0.00 0.00 69 1014.4
20260901122754 15 0 4.8 11.3 0.00 0.00 0.00 70 1014.3
20260901122534 16 0 6.4 11.3 0.00 0.00 0.00 70 1014.2
20260901121753 16 0 6.4 8.0 0.00 0.00 0.00 69 1014.3
20260901121253 16 0 3.2 6.4 0.00 0.00 0.00 69 1014.3
20260901120753 16 0 3.2 3.2 0.00 0.00 0.00 69 1014.3
20260901120532 16 0 1.6 4.8 0.00 0.00 0.00 69 1014.4
20260901120023 16 0 1.6 4.8 0.00 0.00 0.00 69 1014.4
20260901115237 16 0 0.0 1.6 0.00 0.00 0.00 69 1014.4
20260901114735 16 0 0.0 1.6 0.00 0.00 0.00 69 1014.5
20260901114236 16 0 0.0 1.6 0.00 0.00 0.00 69 1014.5
20260901114014 16 0 0.0 1.6 0.00 0.00 0.00 69 1014.4
20260901113233 16 0 0.0 1.6 0.00 0.00 0.00 69 1014.5
20260901112731 16 0 0.0 1.6 0.00 0.00 0.00 68 1014.6
20260901112231 16 0 0.0 1.6 0.00 0.00 0.00 68 1014.6
20260901111732 16 0 0.0 1.6 0.00 0.00 0.00 68 1014.6
20260901111232 16 0 0.0 4.8 0.00 0.00 0.00 68 1014.8
20260901110731 16 0 1.6 4.8 0.00 0.00 0.00 68 1014.6
20260901110511 16 0 0.0 3.2 0.00 0.00 0.00 68 1014.6
20260901105732 16 0 1.6 4.8 0.00 0.00 0.00 68 1014.7
20260901105232 16 0 1.6 4.8 0.00 0.00 0.00 68 1014.6
20260901104732 16 0 1.6 4.8 0.00 0.00 0.00 68 1014.7
20260901104231 16 0 1.6 3.2 0.00 0.00 0.00 68 1014.6
20260901103731 16 0 0.0 4.8 0.00 0.00 0.00 68 1014.6
20260901103232 16 0 3.2 4.8 0.00 0.00 0.00 68 1014.5
20260901102733 16 0 1.6 3.2 0.00 0.00 0.00 69 1014.5
20260901102512 16 0 0.0 3.2 0.00 0.00 0.00 69 1014.5
20260901101715 16 0 0.0 3.2 0.00 0.00 0.00 69 1014.4
20260901101213 16 0 1.6 4.8 0.00 0.00 0.00 69 1014.5
20260901101016 16 0 1.6 4.8 0.00 0.00 0.00 69 1014.4
20260901101011 16 0 0.0 4.8 0.00 0.00 0.00 69 1014.3
20260901095712 16 0 1.6 3.2 0.00 0.00 0.00 69 1014.4
20260901095454 16 0 1.6 3.2 0.00 0.00 0.00 69 1014.4
20260901094712 16 0 0.0 9.7 0.00 0.00 0.00 69 1014.4
20260901094210 16 0 3.2 9.7 0.00 0.00 0.00 69 1014.4
20260901093710 16 0 6.4 9.7 0.00 0.00 0.00 70 1014.4
20260901093446 16 0 1.6 3.2 0.00 0.00 0.00 70 1014.4
20260901092705 16 0 0.0 4.8 0.00 0.00 0.00 70 1014.3
20260901092441 16 0 1.6 4.8 0.00 0.00 0.00 70 1014.4
20260901091705 16 0 0.0 1.6 0.00 0.00 0.00 71 1014.4
20260901091205 16 0 0.0 1.6 0.00 0.00 0.00 70 1014.5
20260901090704 16 0 0.0 6.4 0.00 0.00 0.00 71 1014.5
20260901090204 15 0 0.0 11.3 0.00 0.00 0.00 72 1014.5
20260901085704 15 0 6.4 11.3 0.00 0.00 0.00 72 1014.5
20260901085442 15 0 1.6 4.8 0.00 0.00 0.00 73 1014.5
20260901084703 15 0 0.0 3.2 0.00 0.00 0.00 73 1014.5
20260901084203 15 0 1.6 3.2 0.00 0.00 0.00 74 1014.4
20260901083703 15 0 1.6 3.2 0.00 0.00 0.00 74 1014.6
20260901083203 15 0 0.0 3.2 0.00 0.00 0.00 74 1014.5
20260901082704 15 0 0.0 3.2 0.00 0.00 0.00 74 1014.5
20260901082506 15 0 0.0 1.6 0.00 0.00 0.00 74 1014.5
20260901082459 15 0 0.0 0.0 0.00 0.00 0.00 74 1014.5
20260901081203 15 0 0.0 1.6 0.00 0.00 0.00 74 1014.5
20260901080941 15 0 0.0 1.6 0.00 0.00 0.00 75 1014.4
20260901080202 15 0 0.0 3.2 0.00 0.00 0.00 75 1014.4
20260901075725 15 0 1.6 1.6 0.00 0.00 0.00 75 1014.4
20260901075716 15 0 1.6 3.2 0.00 0.00 0.00 75 1014.4
20260901074702 15 0 0.0 0.0 0.00 0.00 0.00 75 1014.5
20260901074202 15 0 0.0 1.6 0.00 0.00 0.00 75 1014.5
20260901073701 15 0 0.0 1.6 0.00 0.00 0.00 75 1014.5
20260901073202 15 0 0.0 3.2 0.00 0.00 0.00 76 1014.5
20260901072702 15 0 0.0 4.8 0.00 0.00 0.00 76 1014.4
20260901072441 14 0 1.6 4.8 0.00 0.00 0.00 77 1014.5
20260901071701 14 0 3.2 4.8 0.00 0.00 0.00 78 1014.4
20260901071201 14 0 1.6 4.8 0.00 0.00 0.00 78 1014.5
20260901070702 13 0 1.6 4.8 0.00 0.00 0.00 79 1014.4
20260901070438 13 0 3.2 4.8 0.00 0.00 0.00 79 1014.4
20260901065701 13 0 3.2 4.8 0.00 0.00 0.00 79 1014.5
20260901065202 13 0 0.0 3.2 0.00 0.00 0.00 79 1014.5
20260901064700 13 0 0.0 4.8 0.00 0.00 0.00 79 1014.6
20260901064200 13 0 3.2 4.8 0.00 0.00 0.00 79 1014.6
20260901063941 13 0 0.0 1.6 0.00 0.00 0.00 79 1014.6
20260901063200 13 0 1.6 1.6 0.00 0.00 0.00 79 1014.7
20260901062701 13 0 0.0 1.6 0.00 0.00 0.00 79 1014.6
20260901062200 13 0 0.0 3.2 0.00 0.00 0.00 78 1014.6
20260901061700 13 0 0.0 3.2 0.00 0.00 0.00 78 1014.6
20260901061201 13 0 0.0 3.2 0.00 0.00 0.00 78 1014.6
20260901060659 13 0 0.0 3.2 0.00 0.00 0.00 78 1014.7
20260901060200 13 0 0.0 3.2 0.00 0.00 0.00 78 1014.7
20260901055659 13 0 0.0 3.2 0.00 0.00 0.00 78 1014.8
20260901055159 13 0 0.0 1.6 0.00 0.00 0.00 78 1014.7
20260901054659 13 0 0.0 1.6 0.00 0.00 0.00 78 1014.8
20260901054158 13 0 0.0 4.8 0.00 0.00 0.00 78 1014.8
20260901053658 13 0 0.0 4.8 0.00 0.00 0.00 78 1014.8
20260901053159 13 0 0.0 3.2 0.00 0.00 0.00 78 1014.9
20260901052938 13 0 1.6 4.8 0.00 0.00 0.00 78 1014.9
20260901052437 13 0 3.2 4.8 0.00 0.00 0.00 78 1014.9
20260901051659 13 0 1.6 3.2 0.00 0.00 0.00 78 1014.7
20260901051159 13 0 1.6 4.8 0.00 0.00 0.00 78 1014.6
20260901050658 13 0 3.2 4.8 0.00 0.00 0.00 78 1014.7
20260901050158 13 0 3.2 4.8 0.00 0.00 0.00 77 1014.6
20260901045700 13 0 3.2 4.8 0.00 0.00 0.00 77 1014.6
20260901045436 13 0 3.2 4.8 0.00 0.00 0.00 77 1014.6
20260901044659 13 0 3.2 4.8 0.00 0.00 0.00 76 1014.6
20260901044157 13 0 3.2 4.8 0.00 0.00 0.00 76 1014.4
20260901043659 13 0 3.2 4.8 0.00 0.00 0.00 76 1014.4
20260901043158 13 0 1.6 3.2 0.00 0.00 0.00 75 1014.3
20260901042658 13 0 1.6 3.2 0.00 0.00 0.00 75 1014.4
20260901042434 14 0 1.6 3.2 0.00 0.00 0.00 74 1014.2
20260901041936 14 0 1.6 3.2 0.00 0.00 0.00 74 1014.4
20260901041156 14 0 1.6 3.2 0.00 0.00 0.00 73 1014.3
20260901040933 15 0 0.0 1.6 0.00 0.00 0.00 72 1014.3
20260901040156 15 0 0.0 1.6 0.00 0.00 0.00 72 1014.3
20260901035656 15 0 0.0 1.6 0.00 0.00 0.00 72 1014.2
20260901035157 15 0 0.0 3.2 0.00 0.00 0.00 72 1014.1
20260901034936 15 0 0.0 3.2 0.00 0.00 0.00 72 1014.2
20260901034155 15 0 1.6 1.6 0.00 0.00 0.00 71 1014.1
20260901033935 15 0 0.0 1.6 0.00 0.00 0.00 71 1014.0
20260901033156 15 0 0.0 1.6 0.00 0.00 0.00 70 1013.9
20260901032654 16 0 0.0 0.0 0.00 0.00 0.00 69 1013.9
20260901032155 16 0 0.0 0.0 0.00 0.00 0.00 69 1013.8
20260901031654 16 0 0.0 3.2 0.00 0.00 0.00 69 1013.8
20260901031154 16 0 1.6 3.2 0.00 0.00 0.00 69 1013.7
20260901030654 16 0 0.0 4.8 0.00 0.00 0.00 68 1013.6
20260901030432 16 0 0.0 4.8 0.00 0.00 0.00 68 1013.6
20260901025654 16 0 3.2 4.8 0.00 0.00 0.00 68 1013.5
20260901025433 16 0 1.6 6.4 0.00 0.00 0.00 68 1013.6
20260901024654 16 0 1.6 6.4 0.00 0.00 0.00 68 1013.7
20260901024154 16 0 1.6 8.0 0.00 0.00 0.00 67 1013.6
20260901023653 17 0 3.2 8.0 0.00 0.00 0.00 67 1013.6
20260901023153 17 0 1.6 8.0 0.00 0.00 0.00 67 1013.5
20260901022653 17 0 3.2 9.7 0.00 0.00 0.00 67 1013.6
20260901022153 17 0 4.8 9.7 0.00 0.00 0.00 66 1013.5
20260901021653 17 0 4.8 6.4 0.00 0.00 0.00 66 1013.4
20260901021152 17 0 1.6 8.0 0.00 0.00 0.00 65 1013.4
20260901020932 17 0 3.2 8.0 0.00 0.00 0.00 65 1013.4
20260901020155 17 0 3.2 8.0 0.00 0.00 0.00 65 1013.3
20260901015653 17 0 3.2 8.0 0.00 0.00 0.00 65 1013.4
20260901015155 18 0 1.6 8.0 0.00 0.00 0.00 64 1013.5
20260901014654 18 0 4.8 9.7 0.00 0.00 0.00 64 1013.3
20260901014154 18 0 6.4 11.3 0.00 0.00 0.00 64 1013.3
20260901013653 18 0 3.2 14.5 0.00 0.00 0.00 63 1013.4
20260901013153 18 0 4.8 14.5 0.00 0.00 0.00 63 1013.4
20260901012653 18 0 6.4 11.3 0.00 0.00 0.00 62 1013.4
20260901012153 19 0 4.8 14.5 0.00 0.00 0.00 62 1013.4
20260901011653 19 0 4.8 14.5 0.00 0.00 0.00 61 1013.4
20260901011153 19 0 3.2 16.1 0.00 0.00 0.00 61 1013.4
20260901010654 19 0 4.8 20.9 0.00 0.00 0.00 62 1013.4
20260901010431 19 0 8.0 20.9 0.00 0.00 0.00 61 1013.3
20260901005653 20 0 8.0 22.5 0.00 0.00 0.00 61 1013.3
20260901005152 20 0 9.7 22.5 0.00 0.00 0.00 60 1013.3
20260901004653 20 0 6.4 17.7 0.00 0.00 0.00 59 1013.2
20260901004152 20 0 8.0 17.7 0.00 0.00 0.00 59 1013.1
20260901003652 20 0 6.4 16.1 0.00 0.00 0.00 59 1013.1
20260901003151 21 0 8.0 16.1 0.00 0.00 0.00 57 1013.2
20260901002651 21 0 4.8 17.7 0.00 0.00 0.00 56 1013.1
20260901002152 21 0 6.4 17.7 0.00 0.00 0.00 56 1013.1
20260901001649 21 0 8.0 17.7 0.00 0.00 0.00 56 1013.2
20260901001150 21 0 8.0 16.1 0.00 0.00 0.00 55 1013.1
20260901000927 21 0 6.4 16.1 0.00 0.00 0.00 55 1013.1
20260901000429 21 0 6.4 24.1 0.00 0.00 0.00 55 1013.1
20260831235716 21 0 8.0 20.9 0.00 0.00 0.00 54 1013.2
20260831235706 21 0 11.3 24.1 0.00 0.00 0.00 54 1013.1
20260831234649 21 0 11.3 19.3 0.00 0.00 0.00 55 1013.2
20260831234149 22 0 8.0 17.7 0.00 0.00 0.00 54 1013.1
20260831233648 22 0 4.8 17.7 0.00 0.00 0.00 55 1013.2
20260831233149 21 0 8.0 20.9 0.00 0.00 0.00 55 1013.3
20260831232648 21 0 6.4 20.9 0.00 0.00 0.00 55 1013.5
20260831232148 21 0 8.0 22.5 0.00 0.00 0.00 56 1013.4
20260831231926 21 0 8.0 25.7 0.00 0.00 0.00 56 1013.4
20260831231148 21 0 12.9 25.7 0.00 0.00 0.00 55 1013.4
20260831230648 22 0 8.0 19.3 0.00 0.00 0.00 54 1013.4
20260831230148 22 0 8.0 20.9 0.00 0.00 0.00 54 1013.5
20260831225648 22 0 4.8 20.9 0.00 0.00 0.00 56 1013.5
20260831225148 22 0 6.4 20.9 0.00 0.00 0.00 55 1013.5
20260831224648 22 0 9.7 19.3 0.00 0.00 0.00 55 1013.6
20260831224148 21 0 6.4 17.7 0.00 0.00 0.00 55 1013.6
20260831223647 22 0 4.8 17.7 0.00 0.00 0.00 56 1013.6
20260831223147 22 0 6.4 17.7 0.00 0.00 0.00 56 1013.6
20260831222647 21 0 6.4 19.3 0.00 0.00 0.00 57 1013.7
20260831222147 21 0 6.4 22.5 0.00 0.00 0.00 56 1013.7
20260831221932 22 0 8.0 22.5 0.00 0.00 0.00 57 1013.9
20260831221146 22 0 4.8 16.1 0.00 0.00 0.00 56 1013.9
20260831220648 22 0 6.4 16.1 0.00 0.00 0.00 57 1013.9
20260831220148 21 0 8.0 19.3 0.00 0.00 0.00 58 1013.9
20260831215925 21 0 8.0 19.3 0.00 0.00 0.00 57 1014.1
20260831215147 21 0 6.4 19.3 0.00 0.00 0.00 58 1014.2
20260831214647 21 0 6.4 16.1 0.00 0.00 0.00 58 1014.2
20260831214147 21 0 8.0 14.5 0.00 0.00 0.00 58 1014.1
20260831213647 21 0 6.4 14.5 0.00 0.00 0.00 59 1014.2
20260831213147 21 0 4.8 14.5 0.00 0.00 0.00 58 1014.3
20260831212646 21 0 4.8 22.5 0.00 0.00 0.00 58 1014.3
20260831212147 21 0 9.7 22.5 0.00 0.00 0.00 59 1014.4
20260831211925 21 0 6.4 14.5 0.00 0.00 0.00 57 1014.4
20260831211148 22 0 4.8 17.7 0.00 0.00 0.00 57 1014.6
20260831210646 21 0 9.7 17.7 0.00 0.00 0.00 57 1014.7
20260831210424 21 0 3.2 16.1 0.00 0.00 0.00 58 1014.7
20260831205647 21 0 4.8 17.7 0.00 0.00 0.00 60 1014.7
20260831205146 21 0 4.8 17.7 0.00 0.00 0.00 59 1014.7
20260831204645 20 0 4.8 16.1 0.00 0.00 0.00 62 1014.7
20260831204146 20 0 3.2 16.1 0.00 0.00 0.00 63 1014.8
20260831203646 20 0 6.4 14.5 0.00 0.00 0.00 63 1014.7
20260831203146 20 0 8.0 14.5 0.00 0.00 0.00 62 1014.7
20260831202646 20 0 3.2 16.1 0.00 0.00 0.00 63 1014.8
20260831202145 19 0 4.8 9.7 0.00 0.00 0.00 64 1014.9
20260831201645 19 0 6.4 11.3 0.00 0.00 0.00 64 1014.9